Location: Unspecified
(49.2170°N, 0.0000°E)
Time: 19:18:19
(UTC+00:00)

Transit 4A - Pass Details

Date: 22 June 2019
Orbit: 863 x 981 km, 66.8° (Epoch: 20 August)

Event Time Altitude Azimuth Distance (km) Brightness Sun altitude
Rises 10:48:20 0° 268° (W) 3,655 10.8 60.4°
Reaches altitude 10° 10:51:28 10° 283° (WNW) 2,723 10.2 60.7°
Maximum altitude 10:56:27 23° 334° (NNW) 1,945 9.6 61.2°
Drops below altitude 10° 11:01:29 10° 26° (NNE) 2,745 10.3 61.6°
Sets 11:04:40 0° 40° (NE) 3,691 10.9 61.9°
